| time (UTC) | temp F | wind direction | speed knots | gust knots | rain 1hr in | rain 24hr in | rain mn in | humidity % | barometer mb |
| 20260904001348 | 87 | 158 | 0.9 | 4.3 | 0.00 | 0.00 | 0.00 | 70 | 1012.0 |
| 20260903234346 | 88 | 103 | 0.9 | 1.7 | 0.00 | 0.00 | 0.00 | 68 | 1011.7 |
| 20260903231345 | 89 | 151 | 2.6 | 2.6 | 0.00 | 0.00 | 0.00 | 66 | 1011.7 |
| 20260903224343 | 91 | 185 | 0.9 | 0.9 | 0.00 | 0.00 | 0.00 | 63 | 1011.5 |
| 20260903221343 | 92 | 285 | 2.6 | 4.3 | 0.00 | 0.00 | 0.00 | 61 | 1011.3 |
| 20260903214343 | 91 | 202 | 3.5 | 5.2 | 0.00 | 0.00 | 0.00 | 64 | 1011.9 |
| 20260903211343 | 90 | 280 | 0.9 | 1.7 | 0.00 | 0.00 | 0.00 | 66 | 1012.0 |
| 20260903204341 | 90 | 187 | 0.9 | 1.7 | 0.00 | 0.00 | 0.00 | 67 | 1012.2 |
| 20260903201340 | 90 | 191 | 0.9 | 1.7 | 0.00 | 0.00 | 0.00 | 67 | 1012.5 |
| 20260903194339 | 88 | 231 | 0.9 | 1.7 | 0.00 | 0.00 | 0.00 | 70 | 1013.0 |
| 20260903191338 | 86 | 188 | 3.5 | 4.3 | 0.00 | 0.00 | 0.00 | 73 | 1013.2 |
| 20260903184336 | 86 | 168 | 2.6 | 4.3 | 0.00 | 0.00 | 0.00 | 74 | 1013.7 |
| 20260903181331 | 85 | 186 | 2.6 | 4.3 | 0.00 | 0.00 | 0.00 | 76 | 1013.9 |
| 20260903174326 | 83 | 186 | 3.5 | 5.2 | 0.00 | 0.00 | 0.00 | 79 | 1014.4 |
| 20260903171326 | 83 | 201 | 2.6 | 4.3 | 0.00 | 0.00 | 0.00 | 82 | 1014.4 |
| 20260903164326 | 84 | 205 | 1.7 | 1.7 | 0.00 | 0.00 | 0.00 | 82 | 1014.6 |
| 20260903161323 | 83 | 248 | 0.9 | 0.9 | 0.00 | 0.00 | 0.00 | 85 | 1014.2 |
| 20260903154320 | 81 | 148 | 1.7 | 2.6 | 0.00 | 0.00 | 0.00 | 88 | 1014.2 |
| 20260903151317 | 81 | 178 | 2.6 | 2.6 | 0.00 | 0.00 | 0.00 | 89 | 1014.0 |
| 20260903144314 | 81 | 213 | 1.7 | 1.7 | 0.00 | 0.00 | 0.00 | 89 | 1014.4 |
| 20260903141312 | 80 | 279 | 0.0 | 0.0 | 0.00 | 0.00 | 0.00 | 90 | 1014.2 |
| 20260903134310 | 79 | 66 | 0.9 | 0.9 | 0.00 | 0.00 | 0.00 | 91 | 1014.9 |
| 20260903131305 | 79 | 96 | 1.7 | 1.7 | 0.00 | 0.00 | 0.00 | 91 | 1014.1 |
| 20260903124301 | 79 | 280 | 0.0 | 0.0 | 0.00 | 0.00 | 0.00 | 91 | 1013.9 |
| 20260903121259 | 79 | 77 | 0.9 | 0.9 | 0.00 | 0.00 | 0.00 | 90 | 1013.9 |
| 20260903114255 | 79 | 8 | 0.9 | 0.9 | 0.00 | 0.00 | 0.00 | 90 | 1013.4 |
| 20260903111254 | 78 | 209 | 0.9 | 1.7 | 0.00 | 0.00 | 0.00 | 90 | 1013.6 |
| 20260903104253 | 78 | 164 | 0.9 | 0.9 | 0.00 | 0.00 | 0.00 | 90 | 1013.4 |
| 20260903101252 | 78 | 43 | 0.9 | 1.7 | 0.00 | 0.00 | 0.00 | 90 | 1013.4 |
| 20260903094253 | 80 | 334 | 0.0 | 0.0 | 0.00 | 0.00 | 0.00 | 84 | 1013.6 |
| 20260903091249 | 80 | 282 | 0.0 | 0.0 | 0.00 | 0.00 | 0.00 | 83 | 1013.2 |
| 20260903084248 | 80 | 152 | 1.7 | 1.7 | 0.00 | 0.00 | 0.00 | 85 | 1013.3 |
| 20260903081246 | 80 | 174 | 0.9 | 0.9 | 0.00 | 0.00 | 0.00 | 86 | 1013.1 |
| 20260903074246 | 80 | 210 | 0.0 | 0.9 | 0.00 | 0.00 | 0.00 | 86 | 1013.0 |
| 20260903071244 | 80 | 163 | 0.0 | 0.9 | 0.00 | 0.00 | 0.00 | 86 | 1013.3 |
| 20260903064240 | 80 | 23 | 1.7 | 1.7 | 0.00 | 0.00 | 0.00 | 85 | 1013.3 |
| 20260903061239 | 80 | 69 | 0.9 | 1.7 | 0.00 | 0.00 | 0.00 | 84 | 1013.2 |
| 20260903054233 | 80 | 339 | 0.9 | 1.7 | 0.00 | 0.00 | 0.00 | 83 | 1013.8 |
| 20260903051230 | 81 | 342 | 2.6 | 2.6 | 0.00 | 0.00 | 0.00 | 80 | 1013.7 |
| 20260903044230 | 82 | 66 | 0.9 | 1.7 | 0.00 | 0.00 | 0.00 | 77 | 1013.8 |
| 20260903041224 | 83 | 50 | 2.6 | 4.3 | 0.00 | 0.00 | 0.00 | 74 | 1013.8 |
| 20260903034224 | 84 | 25 | 1.7 | 2.6 | 0.00 | 0.00 | 0.00 | 72 | 1013.7 |
| 20260903031222 | 85 | 23 | 1.7 | 2.6 | 0.00 | 0.00 | 0.00 | 70 | 1013.7 |
| 20260903024222 | 86 | 56 | 1.7 | 4.3 | 0.00 | 0.00 | 0.00 | 67 | 1013.6 |
| 20260903021219 | 88 | 6 | 0.9 | 1.7 | 0.00 | 0.00 | 0.00 | 64 | 1013.2 |
| 20260903014217 | 90 | 49 | 0.0 | 0.0 | 0.00 | 0.00 | 0.00 | 60 | 1012.7 |
| 20260903011215 | 91 | 355 | 0.9 | 1.7 | 0.00 | 0.00 | 0.00 | 57 | 1012.1 |
| 20260903004214 | 93 | 150 | 1.7 | 1.7 | 0.00 | 0.00 | 0.00 | 56 | 1012.2 |